North Clarendon, VT

9:59 PM EST on February 09, 2016 (GMT -0500)
Rutland State

Weather History for KRUT - August, 2012

Change the Weather History Date:

Wednesday, August 22, 2012

  Actual Average Record
Temperature  
Mean Temperature 65 °F -  
Max Temperature 79 °F - 90 °F (1955)
Min Temperature 50 °F - 40 °F (1982)
Degree Days  
Heating Degree Days 0    
Month to date heating degree days 6  
Since 1 June heating degree days 108  
Since 1 July heating degree days 11  
Cooling Degree Days 0    
Month to date cooling degree days 92  
Year to date cooling degree days 356  
Since 1 June cooling degree days 314  
Growing Degree Days 14 (Base 50)    
Moisture  
Dew Point 43 °F    
Average Humidity 47    
Maximum Humidity 64    
Minimum Humidity 29    
Precipitation  
Precipitation 0.00 in - 1.64 in (1964)
Month to date precipitation 3.36  
Year to date precipitation 15.52  
Sea Level Pressure  
Sea Level Pressure 30.13 in    
Wind  
Wind Speed 6 mph (SSE)    
Max Wind Speed 10 mph    
Max Gust Speed -    
Visibility 10 miles    
Events      
T = Trace of Precipitation, MM = Missing Value Source: NWS Daily Summary

Daily Weather History Graph

Daily Weather History Graph

Search for Another Location

Airport or City:

Trip Planner

Search our weather history database for the weather conditions in past years. The results will help you decide how hot, cold, wet, or windy it might be!

Date:

Astronomy

Aug. 22, 2012 Rise Set
Actual Time 6:04 AM EDT 7:43 PM EDT
Civil Twilight 5:34 AM EDT 8:13 PM EDT
Nautical Twilight 4:57 AM EDT 8:50 PM EDT
Astronomical Twilight 4:18 AM EDT 9:29 PM EDT
Moon 11:53 AM EDT (8/22) 10:09 PM EDT (8/22)
Length of Visible Light 14h 38m
Length of Day
13h 38m
Waxing Crescent, 29% of the Moon is Illuminated
Aug 22
Waxing Crescent
Aug 24
First Quarter
Aug 31
Full
Sep 8
Last Quarter
Sep 15
New

Hourly Weather History & Observations

Time (EDT) Temp. Dew Point Humidity Pressure Visibility Wind Dir Wind Speed Gust Speed Precip Events Conditions
12:15 AM 57.2 °F 42.8 °F 59% 30.11 in 10.0 mi SE 9.2 mph - N/A   Partly Cloudy
2:15 AM 53.6 °F 41.0 °F 62% 30.12 in 10.0 mi SE 8.1 mph - N/A   Clear
2:35 AM 55.4 °F 41.0 °F 58% 30.12 in 10.0 mi ESE 10.4 mph - N/A   Clear
2:55 AM 53.6 °F 41.0 °F 62% 30.12 in 10.0 mi SSE 5.8 mph - N/A   Clear
3:15 AM 53.6 °F 39.2 °F 58% 30.13 in 10.0 mi SE 10.4 mph - N/A   Clear
3:35 AM 53.6 °F 39.2 °F 58% 30.13 in 10.0 mi South 5.8 mph - N/A   Clear
3:55 AM 51.8 °F 39.2 °F 62% 30.13 in 10.0 mi SSE 6.9 mph - N/A   Clear
4:15 AM 51.8 °F 39.2 °F 62% 30.13 in 10.0 mi SE 8.1 mph - N/A   Clear
4:55 AM 51.8 °F 39.2 °F 62% 30.14 in 10.0 mi SSE 6.9 mph - N/A   Clear
5:15 AM 51.8 °F 39.2 °F 62% 30.14 in 10.0 mi SSE 6.9 mph - N/A   Clear
5:35 AM 51.8 °F 39.2 °F 62% 30.14 in 10.0 mi SE 9.2 mph - N/A   Clear
5:55 AM 51.8 °F 37.4 °F 58% 30.14 in 10.0 mi SE 8.1 mph - N/A   Clear
6:15 AM 51.8 °F 37.4 °F 58% 30.14 in 10.0 mi SE 9.2 mph - N/A   Clear
6:35 AM 51.8 °F 39.2 °F 62% 30.15 in 10.0 mi SE 8.1 mph - N/A   Clear
6:55 AM 51.8 °F 39.2 °F 62% 30.15 in 10.0 mi SE 10.4 mph - N/A   Clear
7:15 AM 51.8 °F 39.2 °F 62% 30.16 in 10.0 mi SE 11.5 mph - N/A   Clear
7:35 AM 53.6 °F 39.2 °F 58% 30.16 in 10.0 mi SE 10.4 mph - N/A   Clear
7:55 AM 55.4 °F 39.2 °F 54% 30.16 in 10.0 mi SE 6.9 mph - N/A   Clear
8:15 AM 55.4 °F 41.0 °F 58% 30.16 in 10.0 mi SE 5.8 mph - N/A   Clear
8:35 AM 57.2 °F 42.8 °F 59% 30.16 in 10.0 mi Calm Calm - N/A   Clear
8:55 AM 59.0 °F 42.8 °F 55% 30.16 in 10.0 mi SE 3.5 mph - N/A   Clear
9:15 AM 60.8 °F 44.6 °F 55% 30.16 in 0.5 mi Calm Calm - N/A   Unknown
9:35 AM 62.6 °F 44.6 °F 52% 30.16 in 8.0 mi Calm Calm - N/A   Clear
9:55 AM 66.2 °F 46.4 °F 49% 30.17 in 10.0 mi Calm Calm - N/A   Clear
10:15 AM 66.2 °F 46.4 °F 49% 30.17 in 10.0 mi Calm Calm - N/A   Clear
10:35 AM 69.8 °F 44.6 °F 40% 30.16 in 10.0 mi SE 3.5 mph - N/A   Clear
10:55 AM 69.8 °F 42.8 °F 38% 30.16 in 10.0 mi Calm Calm - N/A   Clear
11:15 AM 71.6 °F 42.8 °F 35% 30.16 in 10.0 mi Calm Calm - N/A   Clear
11:35 AM 73.4 °F 44.6 °F 36% 30.15 in 10.0 mi Calm Calm - N/A   Clear
11:55 AM 73.4 °F 44.6 °F 36% 30.15 in 10.0 mi ESE 4.6 mph - N/A   Clear
12:15 PM 73.4 °F 42.8 °F 33% 30.15 in 10.0 mi Calm Calm - N/A   Clear
12:35 PM 73.4 °F 42.8 °F 33% 30.15 in 10.0 mi SSW 5.8 mph - N/A   Scattered Clouds
1:15 PM 75.2 °F 42.8 °F 31% 30.14 in 10.0 mi SW 6.9 mph - N/A   Scattered Clouds
1:35 PM 75.2 °F 42.8 °F 31% 30.14 in 10.0 mi SW 4.6 mph - N/A   Partly Cloudy
2:35 PM 77.0 °F 42.8 °F 29% 30.12 in 10.0 mi West 6.9 mph - N/A   Clear
3:15 PM 77.0 °F 44.6 °F 32% 30.11 in 10.0 mi SW 6.9 mph - N/A   Clear
3:55 PM 77.0 °F 44.6 °F 32% 30.10 in 10.0 mi Calm Calm - N/A   Scattered Clouds
4:15 PM 77.0 °F 44.6 °F 32% 30.10 in 10.0 mi WNW 4.6 mph - N/A   Clear
4:35 PM 78.8 °F 44.6 °F 30% 30.10 in 10.0 mi WSW 3.5 mph - N/A   Partly Cloudy
4:55 PM 78.8 °F 44.6 °F 30% 30.09 in 10.0 mi West 4.6 mph - N/A   Mostly Cloudy
5:15 PM 77.0 °F 44.6 °F 32% 30.09 in 10.0 mi SW 8.1 mph - N/A   Mostly Cloudy
5:35 PM 75.2 °F 44.6 °F 34% 30.10 in 10.0 mi SW 4.6 mph - N/A   Mostly Cloudy
5:55 PM 75.2 °F 46.4 °F 36% 30.10 in 10.0 mi SSW 3.5 mph - N/A   Mostly Cloudy
6:15 PM 75.2 °F 46.4 °F 36% 30.09 in 10.0 mi West 3.5 mph - N/A   Scattered Clouds
6:35 PM 75.2 °F 46.4 °F 36% 30.09 in 10.0 mi SSW 4.6 mph - N/A   Partly Cloudy
6:55 PM 73.4 °F 50.0 °F 44% 30.09 in 10.0 mi SSE 3.5 mph - N/A   Clear
7:15 PM 71.6 °F 50.0 °F 46% 30.09 in 10.0 mi ESE 4.6 mph - N/A   Clear
7:35 PM 69.8 °F 48.2 °F 46% 30.09 in 10.0 mi SE 6.9 mph - N/A   Scattered Clouds
7:55 PM 68.0 °F 48.2 °F 49% 30.09 in 10.0 mi SE 8.1 mph - N/A   Scattered Clouds
8:15 PM 66.2 °F 46.4 °F 49% 30.10 in 10.0 mi SE 8.1 mph - N/A   Clear
8:35 PM 66.2 °F 46.4 °F 49% 30.10 in 10.0 mi SE 9.2 mph - N/A   Clear
8:55 PM 64.4 °F 46.4 °F 52% 30.11 in 10.0 mi SE 6.9 mph - N/A   Clear
9:15 PM 64.4 °F 46.4 °F 52% 30.11 in 10.0 mi SE 8.1 mph - N/A   Clear
9:35 PM 64.4 °F 46.4 °F 52% 30.11 in 10.0 mi ESE 6.9 mph - N/A   Clear
9:55 PM 62.6 °F 46.4 °F 55% 30.12 in 10.0 mi SE 6.9 mph - N/A   Clear
10:15 PM 62.6 °F 44.6 °F 52% 30.12 in 10.0 mi ESE 9.2 mph - N/A   Clear
10:35 PM 62.6 °F 44.6 °F 52% 30.12 in 10.0 mi ESE 8.1 mph - N/A   Clear
10:55 PM 62.6 °F 44.6 °F 52% 30.13 in 10.0 mi ESE 9.2 mph - N/A   Clear
11:15 PM 60.8 °F 44.6 °F 55% 30.13 in 10.0 mi SE 10.4 mph - N/A   Partly Cloudy
11:35 PM 60.8 °F 44.6 °F 55% 30.13 in 10.0 mi SE 10.4 mph - N/A   Partly Cloudy